This is the latest recevied weather packets stored in our database for station/object GCEMA. If no packets are shown the sender has not sent any weather packets the latest 10 day(s).
| Time | Temp. | Humidity | Pressure | Rain* | Wind** | Luminosity | Snow |
|---|---|---|---|---|---|---|---|
| 1777898703 | 19.44° C | - | 1006.2 hPa | 0 mm | 0 m/s | - | - |
| 1777898524 | 19.44° C | - | 1006.2 hPa | 0 mm | 0 m/s | - | - |
| 1777898165 | 20° C | - | 1006 hPa | 0 mm | 0 m/s | - | - |
| 1777897985 | 19.44° C | - | 1006 hPa | 0 mm | 0 m/s | - | - |
| 1777897624 | 18.33° C | - | 1006.1 hPa | 0 mm | 0 m/s | - | - |
| 1777897264 | 18.89° C | - | 1005.8 hPa | 0 mm | 0 m/s | - | - |
| 1777897085 | 18.89° C | - | 1005.8 hPa | 0 mm | 0 m/s | - | - |
| 1777896903 | 18.33° C | - | 1005.8 hPa | 0 mm | 0 m/s | - | - |
| 1777896723 | 17.22° C | - | 1005.7 hPa | 0 mm | 0 m/s | - | - |
| 1777896543 | 17.78° C | - | 1005.5 hPa | 0 mm | 0 m/s | - | - |
| 1777896364 | 17.78° C | - | 1005.4 hPa | 0 mm | 0 m/s | - | - |
| 1777896185 | 17.78° C | - | 1005.5 hPa | 0 mm | 0 m/s | - | - |
| 1777896002 | 17.22° C | - | 1005.4 hPa | 0 mm | 0 m/s | - | - |
| 1777895822 | 17.78° C | - | 1005.3 hPa | 0 mm | 0 m/s | - | - |
| 1777895643 | 17.22° C | - | 1005.2 hPa | 0 mm | 0 m/s | - | - |
| 1777895463 | 17.78° C | - | 1005.2 hPa | 0 mm | 0 m/s | - | - |
| 1777895284 | 17.22° C | - | 1005.2 hPa | 0 mm | 0 m/s | - | - |
| 1777895101 | 15.56° C | - | 1005.2 hPa | 0 mm | 0 m/s | - | - |
| 1777894921 | 16.67° C | - | 1005.1 hPa | 0 mm | 0 m/s | - | - |
| 1777894563 | 16.11° C | - | 1004.9 hPa | 0 mm | 0 m/s | - | - |
| 1777894384 | 17.78° C | - | 1004.8 hPa | 0 mm | 0 m/s | - | - |
| 1777894200 | 17.78° C | - | 1004.9 hPa | 0 mm | 0 m/s | - | - |
| 1777894021 | 18.33° C | - | 1005 hPa | 0 mm | 0 m/s | - | - |
| 1777893842 | 18.33° C | - | 1004.9 hPa | 0 mm | 0 m/s | - | - |
| 1777893662 | 17.78° C | - | 1005.2 hPa | 0 mm | 0 m/s | - | - |
* Rain latest hour (hover to see other rain measurements)
** Current wind speed in m/s (hover to see current wind gust speed)